Regional Weather Roundup
Issued by NWS

Home | Current Version | Previous Version | Text Only | Print | Product List | Glossary On
Versions: 1 2 3 4 5 6 7 8 9 10 11 12 13 14 15 16 17 18 19 20 21 22 23 24 25 26 27 28 29 30 31 32 33 34 35 36 37 38 39 40 41 42 43 44 45 46 47 48 49 50
000
ASUS43 KOAX 212102
RWRNE

WEATHER ROUNDUP FOR NEBRASKA
NATIONAL WEATHER SERVICE OMAHA NE
400 PM CDT THU MAY 21 2015

NOTES: SATELLITE DATA IS BEING USED TO AUGMENT CLOUD COVER ABOVE
       12000 FEET.
       "FAIR" INDICATES FEW OR NO CLOUDS BELOW 12,000 FEET WITH NO
       SIGNIFICANT WEATHER AND/OR OBSTRUCTIONS TO VISIBILITY.

  * THESE STATIONS DO NOT REPORT WEATHER SUCH AS RAIN...SNOW OR FOG.

NEZ001>004-019>022-054>056-212200-
NEBRASKA PANHANDLE

CITY           SKY/WX    TMP DP  RH WIND       PRES   REMARKS
SCOTTSBLUFF    CLOUDY    55  42  61 SE15      30.18F
ALLIANCE       CLOUDY    57  43  59 S13       30.20F
CHADRON        CLOUDY    57  42  57 SE13      30.19S
KIMBALL          N/A    N/A N/A N/A MISG        N/A
SIDNEY         CLOUDY    53  42  66 SE13      30.21F
$$

NEZ057>060-069>072-079>082-212200-
SOUTHWEST NEBRASKA

CITY           SKY/WX    TMP DP  RH WIND       PRES   REMARKS
NORTH PLATTE   MOSUNNY   62  40  44 SE7       30.23F
IMPERIAL       CLOUDY    57  43  59 SE14      30.23F
LEXINGTON      SUNNY     62  42  47 SE6       30.24F
MCCOOK         CLOUDY    62  39  42 S7        30.24F
OGALLALA       CLOUDY    57  43  58 S8        30.23F
$$

NEZ005>010-023>029-035>040-094-212200-
NORTH CENTRAL NEBRASKA

CITY           SKY/WX    TMP DP  RH WIND       PRES   REMARKS
VALENTINE      SUNNY     64  31  28 S13G20    30.21F
AINSWORTH      SUNNY     64  34  32 S6        30.22F
BROKEN BOW     SUNNY     64  37  36 SW6       30.23F
ORD            SUNNY     64  36  35 N3        30.22F
$$

NEZ041-046>049-061>064-073>077-083>087-212200-
SOUTH CENTRAL NEBRASKA

CITY           SKY/WX    TMP DP  RH WIND       PRES   REMARKS
GRAND ISLAND   SUNNY     64  33  31 CALM      30.25F
AURORA         SUNNY     64  36  34 SW3       30.25F
HASTINGS       SUNNY     64  36  35 VRB5      30.24F
HEBRON         SUNNY     65  32  29 NE3       30.25F
HOLDREGE       SUNNY     62  34  34 CALM      30.24F
KEARNEY *      SUNNY     63  34  34 CALM      30.24F
$$

NEZ011>018-030>034-042>045-212200-
NORTHEAST NEBRASKA

CITY           SKY/WX    TMP DP  RH WIND       PRES   REMARKS
NORFOLK        SUNNY     69  36  29 CALM      30.20F
ALBION         SUNNY     66  34  30 S3        30.22F
BLAIR          SUNNY     71  36  28 W8        30.19F
COLUMBUS *     SUNNY     68  36  30 W6        30.25F
FREMONT        SUNNY     72  36  26 W8        30.20F
TEKAMAH        SUNNY     76  38  25 NW15      30.17F
WAYNE          SUNNY     71  38  29 W7G17     30.19S
$$

NEZ050>053-065>068-078-088>093-212200-
SOUTHEAST NEBRASKA

CITY           SKY/WX    TMP DP  RH WIND       PRES   REMARKS
LINCOLN        SUNNY     69  39  33 W8G17     30.23F
OMAHA EPPLEY   MOSUNNY   73  40  30 W7        30.18F
BEATRICE       SUNNY     66  40  37 W6        30.24F
FALLS CITY     SUNNY     68  41  37 W5        30.22F
NEBRASKA CITY  SUNNY     68  33  26 W6        30.21F
PLATTSMOUTH    SUNNY     70  34  26 W10       30.20F
$$

NEZ044-045-051>053-067-212200-
OMAHA AREA

CITY           SKY/WX    TMP DP  RH WIND       PRES   REMARKS
OMAHA EPPLEY   MOSUNNY   73  40  30 W7        30.18F
BLAIR          SUNNY     71  36  28 W8        30.19F
FREMONT        SUNNY     72  36  26 W8        30.20F
MILLARD        SUNNY     71  39  31 NW6       30.19F
OFFUTT AFB     SUNNY     71  42  35 SW7       30.18F
PLATTSMOUTH    SUNNY     70  34  26 W10       30.20F
WAHOO          FAIR      71  34  25 SW3       30.21F
$$



USA.gov is the U.S. government's official web portal to all federal, state and local government web resources and services.